• In Hungary
  • List of Countries
  • For 7 days
  • Water Temperature
  • Satellite Maps
  • Weather Map
  • News
  • Weather Widgets
  • user-avatar
    Login

    Hourly Weather Ankudiniha

    Today, 24 September, Monday

    Time Temperature Precipitation Wind Pressure Humidity
    00:00 +7°C° 0 mm 3 mps 736 mmHg 93%
    01:00 +7°C° 0 mm 3 mps 736 mmHg 94%
    02:00 +6°C° 0 mm 2 mps 737 mmHg 95%
    03:00 +6°C° 0 mm 2 mps 737 mmHg 96%
    04:00 +6°C° 0 mm 2 mps 737 mmHg 96%
    05:00 +6°C° 0 mm 2 mps 737 mmHg 97%
    06:00 +6°C° 0 mm 2 mps 737 mmHg 94%
    07:00 +7°C° 0 mm 2 mps 737 mmHg 91%
    08:00 +8°C° 0 mm 2 mps 737 mmHg 88%
    09:00 +9°C° 0 mm 2 mps 737 mmHg 82%
    10:00 +10°C° 0 mm 2 mps 736 mmHg 76%
    11:00 +11°C° 0 mm 3 mps 736 mmHg 70%
    12:00 +12°C° 0.4 mm 2 mps 736 mmHg 74%
    13:00 +12°C° 0.4 mm 2 mps 736 mmHg 78%
    14:00 +10°C° 0.4 mm 2 mps 735 mmHg 82%
    15:00 +10°C° 1 mm 2 mps 735 mmHg 86%
    16:00 +9°C° 1 mm 2 mps 734 mmHg 90%
    17:00 +8°C° 1 mm 2 mps 733 mmHg 95%
    18:00 +8°C° 1.1 mm 2 mps 733 mmHg 95%
    19:00 +8°C° 1.1 mm 2 mps 732 mmHg 95%
    20:00 +8°C° 1.1 mm 3 mps 731 mmHg 96%
    21:00 +7°C° 1.2 mm 3 mps 731 mmHg 95%
    22:00 +6°C° 1.2 mm 4 mps 730 mmHg 95%
    23:00 +6°C° 1.2 mm 4 mps 729 mmHg 94%

    Tomorrow, 25 September, Tuesday

    Time Temperature Precipitation Wind Pressure Humidity
    00:00 +6°C° 1.1 mm 4 mps 729 mmHg 94%
    01:00 +6°C° 1.1 mm 5 mps 729 mmHg 93%
    02:00 +6°C° 1.1 mm 5 mps 729 mmHg 93%
    03:00 +6°C° 0.9 mm 5 mps 729 mmHg 92%
    04:00 +5°C° 0.9 mm 6 mps 729 mmHg 91%
    05:00 +5°C° 0.9 mm 6 mps 730 mmHg 91%
    06:00 +5°C° 0.5 mm 6 mps 730 mmHg 90%
    07:00 +5°C° 0.5 mm 6 mps 731 mmHg 89%
    08:00 +5°C° 0.5 mm 7 mps 732 mmHg 87%
    09:00 +5°C° 0.2 mm 7 mps 733 mmHg 84%
    10:00 +5°C° 0.2 mm 7 mps 733 mmHg 81%
    11:00 +6°C° 0.2 mm 7 mps 734 mmHg 78%
    12:00 +6°C° 0.2 mm 7 mps 735 mmHg 75%
    13:00 +8°C° 0.2 mm 6 mps 736 mmHg 71%
    14:00 +8°C° 0.2 mm 6 mps 736 mmHg 67%
    15:00 +7°C° 0 mm 6 mps 737 mmHg 69%
    16:00 +7°C° 0 mm 5 mps 738 mmHg 71%
    17:00 +6°C° 0 mm 5 mps 739 mmHg 73%
    18:00 +5°C° 0 mm 5 mps 740 mmHg 75%
    19:00 +3°C° 0 mm 5 mps 741 mmHg 77%
    20:00 +3°C° 0 mm 5 mps 742 mmHg 79%
    21:00 +2°C° 0 mm 5 mps 742 mmHg 77%
    22:00 +3°C° 0 mm 4 mps 743 mmHg 74%
    23:00 +1°C° 0 mm 4 mps 744 mmHg 71%

    Day after tomorrow, 26 September, Wednesday

    Time Temperature Precipitation Wind Pressure Humidity
    00:00 +1°C° 0 mm 4 mps 744 mmHg 71%
    01:00 0°C° 0 mm 4 mps 745 mmHg 71%
    02:00 0°C° 0 mm 4 mps 746 mmHg 71%
    03:00 0°C° 0 mm 3 mps 746 mmHg 74%
    04:00 0°C° 0 mm 3 mps 746 mmHg 77%
    05:00 0°C° 0 mm 3 mps 747 mmHg 79%
    06:00 +1°C° 0 mm 3 mps 747 mmHg 76%
    07:00 +2°C° 0 mm 3 mps 747 mmHg 73%
    08:00 +3°C° 0 mm 3 mps 748 mmHg 70%
    09:00 +4°C° 0 mm 4 mps 747 mmHg 66%
    10:00 +6°C° 0 mm 4 mps 747 mmHg 63%
    11:00 +8°C° 0 mm 4 mps 747 mmHg 59%
    12:00 +8°C° 0 mm 4 mps 746 mmHg 59%
    13:00 +10°C° 0 mm 4 mps 746 mmHg 59%
    14:00 +9°C° 0 mm 5 mps 745 mmHg 59%
    15:00 +8°C° 0 mm 5 mps 744 mmHg 62%
    16:00 +8°C° 0 mm 5 mps 743 mmHg 64%
    17:00 +7°C° 0 mm 5 mps 742 mmHg 66%
    18:00 +6°C° 0.6 mm 5 mps 741 mmHg 72%
    19:00 +5°C° 0.6 mm 6 mps 740 mmHg 78%
    20:00 +4°C° 0.6 mm 7 mps 739 mmHg 84%
    21:00 +4°C° 1.3 mm 7 mps 738 mmHg 85%
    22:00 +4°C° 1.3 mm 7 mps 737 mmHg 86%
    23:00 +4°C° 1.3 mm 7 mps 735 mmHg 87%

    27 September, Thursday

    Time Temperature Precipitation Wind Pressure Humidity
    00:00 +4°C° 1 mm 7 mps 734 mmHg 88%
    01:00 +4°C° 1 mm 6 mps 734 mmHg 89%
    02:00 +4°C° 1 mm 6 mps 733 mmHg 90%
    03:00 +5°C° 0.4 mm 5 mps 733 mmHg 89%
    04:00 +5°C° 0.4 mm 5 mps 733 mmHg 89%
    05:00 +5°C° 0.4 mm 4 mps 733 mmHg 89%
    06:00 +5°C° 0 mm 4 mps 733 mmHg 87%
    07:00 +6°C° 0 mm 5 mps 734 mmHg 85%
    08:00 +6°C° 0 mm 5 mps 734 mmHg 83%
    09:00 +7°C° 0.2 mm 5 mps 734 mmHg 78%
    10:00 +7°C° 0.2 mm 6 mps 735 mmHg 73%
    11:00 +8°C° 0.2 mm 6 mps 735 mmHg 68%
    12:00 +8°C° 0.1 mm 6 mps 735 mmHg 66%
    13:00 +9°C° 0.1 mm 6 mps 735 mmHg 63%
    14:00 +9°C° 0.1 mm 6 mps 735 mmHg 60%
    15:00 +8°C° 0 mm 5 mps 735 mmHg 64%
    16:00 +7°C° 0 mm 4 mps 735 mmHg 67%
    17:00 +8°C° 0 mm 3 mps 735 mmHg 71%
    18:00 +7°C° 0 mm 3 mps 735 mmHg 73%
    19:00 +5°C° 0 mm 3 mps 735 mmHg 75%
    20:00 +5°C° 0 mm 3 mps 735 mmHg 78%
    21:00 +5°C° 0 mm 3 mps 735 mmHg 81%
    22:00 +5°C° 0 mm 2 mps 735 mmHg 84%
    23:00 +5°C° 0 mm 2 mps 734 mmHg 88%

    28 September, Friday

    Time Temperature Precipitation Wind Pressure Humidity
    00:00 +5°C° 0.2 mm 2 mps 734 mmHg 89%
    01:00 +5°C° 0.2 mm 2 mps 733 mmHg 91%
    02:00 +5°C° 0.2 mm 2 mps 732 mmHg 93%
    03:00 +6°C° 1.7 mm 1 mps 731 mmHg 94%
    04:00 +6°C° 1.7 mm 1 mps 730 mmHg 96%
    05:00 +6°C° 1.7 mm 1 mps 729 mmHg 97%
    06:00 +5°C° 0.9 mm 2 mps 729 mmHg 96%
    07:00 +5°C° 0.9 mm 2 mps 729 mmHg 95%
    08:00 +4°C° 0.9 mm 3 mps 730 mmHg 95%
    09:00 +5°C° 0.3 mm 3 mps 731 mmHg 91%
    10:00 +6°C° 0.3 mm 4 mps 732 mmHg 87%
    11:00 +6°C° 0.3 mm 4 mps 733 mmHg 84%
    12:00 +7°C° 0.2 mm 5 mps 734 mmHg 82%
    13:00 +7°C° 0.2 mm 5 mps 734 mmHg 79%
    14:00 +7°C° 0.2 mm 5 mps 735 mmHg 77%
    15:00 +6°C° 0.1 mm 4 mps 735 mmHg 79%
    16:00 +6°C° 0.1 mm 4 mps 736 mmHg 80%
    17:00 +5°C° 0.1 mm 3 mps 737 mmHg 82%
    18:00 +4°C° 0 mm 3 mps 738 mmHg 82%
    19:00 +3°C° 0 mm 3 mps 738 mmHg 82%
    20:00 +3°C° 0 mm 3 mps 739 mmHg 83%
    21:00 +2°C° 0 mm 3 mps 740 mmHg 83%
    22:00 +2°C° 0 mm 3 mps 740 mmHg 83%
    23:00 +1°C° 0 mm 3 mps 741 mmHg 83%

    29 September, Saturday

    Time Temperature Precipitation Wind Pressure Humidity
    00:00 +1°C° 0 mm 3 mps 741 mmHg 85%
    01:00 +1°C° 0 mm 3 mps 742 mmHg 86%
    02:00 +1°C° 0 mm 3 mps 742 mmHg 88%
    03:00 0°C° 0 mm 3 mps 743 mmHg 90%
    04:00 0°C° 0 mm 3 mps 743 mmHg 92%
    05:00 0°C° 0 mm 3 mps 744 mmHg 94%
    06:00 +1°C° 0 mm 3 mps 744 mmHg 88%
    07:00 +1°C° 0 mm 3 mps 745 mmHg 83%
    08:00 +2°C° 0 mm 3 mps 745 mmHg 78%
    09:00 +3°C° 0 mm 3 mps 746 mmHg 70%
    10:00 +5°C° 0 mm 3 mps 746 mmHg 62%
    11:00 +7°C° 0 mm 3 mps 747 mmHg 53%
    12:00 +7°C° 0 mm 3 mps 747 mmHg 54%
    13:00 +6°C° 0 mm 4 mps 747 mmHg 55%
    14:00 +6°C° 0 mm 4 mps 746 mmHg 56%
    15:00 +7°C° 0.1 mm 3 mps 747 mmHg 62%
    16:00 +5°C° 0.1 mm 3 mps 747 mmHg 69%
    17:00 +4°C° 0.1 mm 3 mps 747 mmHg 75%
    18:00 +4°C° 0 mm 3 mps 747 mmHg 79%
    19:00 +3°C° 0 mm 3 mps 748 mmHg 82%
    20:00 +2°C° 0 mm 3 mps 748 mmHg 86%
    21:00 +2°C° 0 mm 3 mps 749 mmHg 87%
    22:00 +2°C° 0 mm 3 mps 749 mmHg 88%
    23:00 +1°C° 0 mm 3 mps 750 mmHg 88%
    Show more

    3.3.7123123